Location: Mexico
(19.4000°N, 99.1500°W)
Time: 16:08:43
(UTC-06:00)

ISS - Pass Details

Date: 04 August 2020
Orbit: 418 x 420 km, 51.6° (Epoch: 08 August)

Event Time Altitude Azimuth Distance (km) Brightness Sun altitude
Rises 21:02:54 0° 333° (NNW) 2,356 0.9 -25.0°
Reaches altitude 10° 21:05:10 10° 345° (NNW) 1,492 -0.4 -25.4°
Enters shadow 21:06:11 17° 356° (N) 1,145 -1.2 -25.6°
